Hourly Weather Allendorf

Today, 5 December, Saturday

Time Temperature Precipitation Wind Pressure Humidity
00:00 +2°C° 0 mm 1 mps 710 mmHg 85%
01:00 +2°C° 0 mm 1 mps 710 mmHg 87%
02:00 +2°C° 1 mm 1 mps 710 mmHg 91%
03:00 +1°C° 1 mm 0 mps 710 mmHg 94%
04:00 0°C° 1 mm 0 mps 710 mmHg 97%
05:00 +2°C° 1 mm 1 mps 710 mmHg 97%
06:00 +2°C° 1 mm 1 mps 711 mmHg 98%
07:00 +1°C° 1 mm 2 mps 712 mmHg 98%
08:00 +2°C° 0 mm 2 mps 712 mmHg 97%
09:00 +2°C° 0 mm 2 mps 713 mmHg 96%
10:00 +2°C° 0 mm 2 mps 713 mmHg 95%
11:00 +2°C° 0 mm 2 mps 714 mmHg 94%
12:00 +3°C° 0 mm 2 mps 715 mmHg 92%
13:00 +3°C° 0 mm 2 mps 715 mmHg 91%
14:00 +3°C° 0 mm 2 mps 715 mmHg 92%
15:00 +2°C° 0 mm 2 mps 715 mmHg 93%
16:00 +2°C° 0 mm 2 mps 716 mmHg 95%
17:00 +2°C° 0 mm 1 mps 716 mmHg 95%
18:00 +2°C° 0 mm 1 mps 716 mmHg 96%
19:00 +1°C° 0 mm 1 mps 716 mmHg 96%
20:00 +1°C° 0 mm 1 mps 716 mmHg 96%
21:00 +1°C° 0 mm 1 mps 716 mmHg 96%
22:00 0°C° 0 mm 0 mps 716 mmHg 96%
23:00 +1°C° 0 mm 1 mps 716 mmHg 96%

Tomorrow, 6 December, Sunday

Time Temperature Precipitation Wind Pressure Humidity
00:00 0°C° 0 mm 1 mps 717 mmHg 95%
01:00 0°C° 0 mm 1 mps 717 mmHg 95%
02:00 0°C° 0 mm 1 mps 717 mmHg 94%
03:00 0°C° 0 mm 1 mps 716 mmHg 94%
04:00 0°C° 0 mm 1 mps 716 mmHg 93%
05:00 +1°C° 0 mm 1 mps 716 mmHg 92%
06:00 +1°C° 0 mm 1 mps 716 mmHg 90%
07:00 +2°C° 0 mm 1 mps 716 mmHg 89%
08:00 +2°C° 0 mm 1 mps 716 mmHg 89%
09:00 +2°C° 0 mm 1 mps 717 mmHg 90%
10:00 +3°C° 0 mm 1 mps 717 mmHg 91%
11:00 +3°C° 0 mm 1 mps 716 mmHg 91%
12:00 +4°C° 0 mm 1 mps 716 mmHg 91%
13:00 +3°C° 0 mm 0 mps 716 mmHg 91%
14:00 +4°C° 0 mm 1 mps 716 mmHg 93%
15:00 +4°C° 0 mm 1 mps 716 mmHg 94%
16:00 +3°C° 0 mm 1 mps 715 mmHg 96%
17:00 +3°C° 0.2 mm 1 mps 715 mmHg 96%
18:00 +3°C° 0.2 mm 1 mps 714 mmHg 97%
19:00 +3°C° 0.2 mm 1 mps 714 mmHg 97%
20:00 +3°C° 2.1 mm 1 mps 714 mmHg 97%
21:00 +3°C° 2.1 mm 1 mps 713 mmHg 98%
22:00 +3°C° 2.1 mm 1 mps 713 mmHg 98%
23:00 +3°C° 0.4 mm 1 mps 713 mmHg 98%

Day after tomorrow, 7 December, Monday

Time Temperature Precipitation Wind Pressure Humidity
00:00 +3°C° 0.4 mm 1 mps 712 mmHg 98%
01:00 +3°C° 0.4 mm 1 mps 712 mmHg 98%
02:00 +3°C° 0 mm 1 mps 711 mmHg 98%
03:00 +2°C° 0 mm 0 mps 711 mmHg 98%
04:00 +2°C° 0 mm 0 mps 711 mmHg 99%
05:00 +2°C° 0.1 mm 0 mps 711 mmHg 99%
06:00 +3°C° 0.1 mm 1 mps 711 mmHg 99%
07:00 +3°C° 0.1 mm 1 mps 712 mmHg 99%
08:00 +4°C° 0 mm 1 mps 712 mmHg 98%
09:00 +3°C° 0 mm 2 mps 712 mmHg 97%
10:00 +3°C° 0 mm 2 mps 712 mmHg 97%
11:00 +3°C° 0.1 mm 2 mps 713 mmHg 96%
12:00 +3°C° 0.1 mm 2 mps 713 mmHg 96%
13:00 +3°C° 0.1 mm 2 mps 713 mmHg 96%
14:00 +3°C° 0.1 mm 2 mps 714 mmHg 96%
15:00 +3°C° 0.1 mm 2 mps 714 mmHg 96%
16:00 +3°C° 0.1 mm 2 mps 715 mmHg 97%
17:00 +3°C° 0.1 mm 2 mps 715 mmHg 96%
18:00 +3°C° 0.1 mm 2 mps 716 mmHg 96%
19:00 +2°C° 0.1 mm 2 mps 716 mmHg 95%
20:00 +2°C° 0 mm 2 mps 717 mmHg 96%
21:00 +2°C° 0 mm 2 mps 717 mmHg 96%
22:00 +2°C° 0 mm 2 mps 717 mmHg 96%
23:00 +2°C° 0 mm 2 mps 717 mmHg 96%

8 December, Tuesday

Time Temperature Precipitation Wind Pressure Humidity
00:00 +3°C° 0 mm 1 mps 718 mmHg 96%
01:00 +2°C° 0 mm 1 mps 718 mmHg 95%
02:00 +2°C° 0 mm 1 mps 718 mmHg 95%
03:00 +2°C° 0 mm 1 mps 718 mmHg 95%
04:00 +1°C° 0 mm 0 mps 718 mmHg 95%
05:00 +1°C° 0 mm 0 mps 718 mmHg 95%
06:00 +1°C° 0 mm 0 mps 719 mmHg 94%
07:00 +1°C° 0 mm 0 mps 719 mmHg 94%
08:00 +1°C° 0 mm 0 mps 719 mmHg 93%
09:00 +1°C° 0 mm 0 mps 719 mmHg 92%
10:00 +1°C° 0 mm 0 mps 720 mmHg 91%
11:00 +2°C° 0 mm 0 mps 720 mmHg 88%
12:00 +2°C° 0 mm 0 mps 720 mmHg 85%
13:00 +3°C° 0 mm 0 mps 720 mmHg 82%
14:00 +2°C° 0 mm 0 mps 720 mmHg 84%
15:00 +2°C° 0 mm 0 mps 720 mmHg 87%
16:00 +2°C° 0 mm 0 mps 720 mmHg 89%
17:00 +2°C° 0 mm 0 mps 720 mmHg 90%
18:00 +1°C° 0 mm 0 mps 720 mmHg 92%
19:00 +1°C° 0 mm 0 mps 721 mmHg 93%
20:00 +1°C° 0 mm 0 mps 721 mmHg 94%
21:00 +1°C° 0 mm 0 mps 721 mmHg 95%
22:00 +1°C° 0 mm 0 mps 721 mmHg 96%
23:00 +1°C° 0.1 mm 0 mps 721 mmHg 96%

9 December, Wednesday

Time Temperature Precipitation Wind Pressure Humidity
00:00 +1°C° 0.1 mm 0 mps 721 mmHg 96%
01:00 +1°C° 0.1 mm 0 mps 722 mmHg 97%
02:00 +1°C° 0 mm 0 mps 722 mmHg 97%
03:00 +1°C° 0 mm 0 mps 722 mmHg 97%
04:00 +1°C° 0 mm 0 mps 722 mmHg 97%
05:00 +2°C° 0.1 mm 1 mps 722 mmHg 97%
06:00 +2°C° 0.1 mm 1 mps 722 mmHg 97%
07:00 +2°C° 0.1 mm 1 mps 722 mmHg 97%
08:00 +2°C° 0 mm 1 mps 722 mmHg 97%
09:00 +2°C° 0 mm 1 mps 723 mmHg 96%
10:00 +2°C° 0 mm 1 mps 723 mmHg 95%
11:00 +3°C° 0 mm 1 mps 723 mmHg 93%
12:00 +2°C° 0 mm 2 mps 723 mmHg 91%
13:00 +2°C° 0 mm 2 mps 723 mmHg 89%
14:00 +2°C° 0 mm 2 mps 722 mmHg 91%
15:00 +2°C° 0 mm 2 mps 722 mmHg 92%
16:00 +1°C° 0 mm 2 mps 722 mmHg 94%
17:00 +1°C° 0.3 mm 2 mps 722 mmHg 95%
18:00 +1°C° 0.3 mm 2 mps 722 mmHg 96%
19:00 +1°C° 0.3 mm 2 mps 722 mmHg 97%
20:00 +1°C° 0.4 mm 2 mps 722 mmHg 97%
21:00 +1°C° 0.4 mm 2 mps 722 mmHg 97%
22:00 +1°C° 0.4 mm 2 mps 722 mmHg 97%
23:00 +1°C° 0.6 mm 2 mps 722 mmHg 97%

10 December, Thursday

Time Temperature Precipitation Wind Pressure Humidity
00:00 +1°C° 0.6 mm 2 mps 722 mmHg 97%
01:00 +2°C° 0.6 mm 1 mps 721 mmHg 98%
02:00 +2°C° 0.6 mm 1 mps 721 mmHg 98%
03:00 +2°C° 0.6 mm 1 mps 721 mmHg 98%
04:00 +2°C° 0.6 mm 1 mps 721 mmHg 98%
05:00 +2°C° 0.4 mm 1 mps 721 mmHg 98%
06:00 +3°C° 0.4 mm 1 mps 721 mmHg 98%
07:00 +3°C° 0.4 mm 1 mps 720 mmHg 98%
08:00 +3°C° 0.2 mm 1 mps 721 mmHg 98%
09:00 +3°C° 0.2 mm 1 mps 721 mmHg 98%
10:00 +2°C° 0.2 mm 0 mps 721 mmHg 97%
11:00 +2°C° 0.1 mm 0 mps 721 mmHg 97%
12:00 +2°C° 0.1 mm 0 mps 720 mmHg 96%
13:00 +2°C° 0.1 mm 0 mps 720 mmHg 96%
14:00 +2°C° 0.1 mm 0 mps 720 mmHg 96%
15:00 +2°C° 0.1 mm 0 mps 720 mmHg 96%
16:00 +2°C° 0.1 mm 0 mps 720 mmHg 97%
17:00 +3°C° 0.1 mm 1 mps 720 mmHg 97%
18:00 +2°C° 0.1 mm 1 mps 720 mmHg 97%
19:00 +2°C° 0.1 mm 1 mps 720 mmHg 97%
20:00 +2°C° 0.1 mm 1 mps 720 mmHg 97%
21:00 +2°C° 0.1 mm 1 mps 720 mmHg 97%
22:00 +2°C° 0.1 mm 1 mps 720 mmHg 97%
23:00 +2°C° 0.1 mm 1 mps 720 mmHg 97%
Show more